+ View the NASA Portal
+ Center for Near-Earth Object Studies
IMPORTANT:
The SSD Announcement email list is now available. Major changes are coming in the near future, including possible hostname and/or URL changes. To be notified of such changes, subscribe to this email list.
Please visit
this page
for more details.
Don't show this message again
JPL Small-Body Database Browser
Search:
[
help
]
117519 (2005 CM51)
Classification:
Main-belt Asteroid
SPK-ID:
2117519
[
Ephemeris
|
Orbit Diagram
|
Orbital Elements
|
Mission Design
|
Physical Parameters
|
Discovery Circumstances
]
[ show orbit diagram ]
Orbital Elements at Epoch 2458600.5 (2019-Apr-27.0) TDB
Reference:
JPL 12
(heliocentric ecliptic J2000)
Element
Value
Uncertainty (1-sigma)
Units
e
.1553209736162037
6.0343e-08
a
2.446634659398691
1.7929e-08
au
q
2.066620982017737
1.4198e-07
au
i
.4237225121362695
5.3406e-06
deg
node
152.2741835557623
0.00088373
deg
peri
26.26585399535589
0.00088399
deg
M
238.3291408671909
2.6006e-05
deg
t
p
2459072.928605649021
(2020-Aug-11.42860565)
0.00010469
TDB
period
1397.822775690308
3.83
1.5365e-05
4.207e-08
d
yr
n
.2575433783601184
2.831e-09
deg/d
Q
2.826648336779645
2.0714e-08
au
Orbit Determination Parameters
# obs. used (total)
364
data-arc span
8422 days (23.06 yr)
first obs. used
1995-09-24
last obs. used
2018-10-15
planetary ephem.
DE431
SB-pert. ephem.
SB431-N16
condition code
0
norm. resid. RMS
.58724
source
ORB
producer
Otto Matic
solution date
2019-Jul-14 02:38:30
Additional Information
Earth MOID
= 1.07073 au
Jupiter MOID
= 2.13543 au
T_jup
= 3.481
[ show covariance matrix ]
[
Ephemeris
|
Orbit Diagram
|
Orbital Elements
|
Mission Design
|
Physical Parameters
|
Discovery Circumstances
]
Physical Parameter Table
Parameter
Symbol
Value
Units
Sigma
Reference
Notes
absolute magnitude
H
16.8
n/a
MPO459554
117519 (2005 CM51)
Discovered 2005-Feb-02 by Spacewatch at Kitt Peak
Reference:
20051019/Numbers.arc
Last Updated:
2005-10-26
Alternate Designations
2005 CM51
= 1995 SA84
[
Ephemeris
|
Orbit Diagram
|
Orbital Elements
|
Mission Design
|
Physical Parameters
|
Discovery Circumstances
]
2019-Dec-09 17:00 UT
(server date/time)
Site Manager:
Ryan S. Park
Webmaster
:
Alan B. Chamberlin